Das Wetter in  D-61279 Heinzenberg / Taunus





Wetter Minimum- & Maximum-Werte im September 2009

Standort: Heinzenberg / Taunus - Höhe 297 m         8 24' 1" Ost 50 21' 51" Nord
(   3-stündige Aktualisierung    letzte Aktualisierung um 19:04 am 30.09.2009  )


Messgrösse

Minimum

Maximum

Durchschnitt

Temperatur West /
Luftfeuchte West
Anklicken für Monats-Diagramm

3,8 C

07:25
26.09.2009

31 %

17:37
08.09.2009

29,4 C

14:15
01.09.2009

99 %

05:59
15.09.2009

Temp

14,5 C

Feuchte

80 %

Temperatur Ost /
Luftfeuchte Ost
Anklicken für Monats-Diagramm

4,0 C

07:40
26.09.2009

--

--
--

29,2 C

14:40
01.09.2009

--

--
--

14,5 C

--

Luftdruck Anklicken für Monats-Diagramm

1002,4 hPa

11:27
03.09.2009

1032,1 hPa

07:55
11.09.2009

1020,8 hPa

Taupunkt

2,9 C

07:25
26.09.2009

17,3 C

13:19
20.09.2009

10,7 C

Windchill
( gefühlte Temperatur )

-0,4 C

03:29
05.09.2009

29,0 C

14:15
01.09.2009

13,3 C

Windgeschwindigkeit /
Windrichtung
Anklicken für Monats-Diagramm

---

62,1 km/h / W

15:12
03.09.2009

6,4 km/h
W

Helligkeit /
Sonnenschein
Anklicken für Monats-Diagramm
Anklicken für Monats-Diagramm

Sonnenschein:

138:39 Stunden

Max: 11:20 Std am
08.09.2009

105 klux

13:36
02.09.2009

28 klux

Solarstrahlung Anklicken für Monats-Diagramm

---

718 W/m

13:36
02.09.2009

204 W/m

Regenmenge
    September 2009
Anklicken für Monats-Diagramm

Insgesamt 24,2 l/m

in 24:56 Stunden
an 11 Tagen

8,8 l/m

17:48
14.09.2009

Gesamtmenge

24,2 l/m

Regen-Tage
    September 2009
Anklicken für Monats-Diagramm

>   0 mm/Tag

>   2 mm/Tag

>   5 mm/Tag

> 10 mm/Tag

> 20 mm/Tag

11 Tage     
3 Tage     
3 Tage     
0 Tage     
0 Tage     

Eisige Tage September 2009 / 2008

Tmin ≤ -10C     

0 Tage

/

0 Tage

Eistage September 2009 / 2008

Tmax <     0C     

0 Tage

/

0 Tage

Frosttage September 2009 / 2008

Tmin ≤     0C     

0 Tage

/

0 Tage

Kalte Tage September 2009 / 2008

Tmax <   10C     

0 Tage

/

0 Tage

Warme Tage September 2009 / 2008

Tmax ≥   20C     

17 Tage

/

6 Tage

Sommertage September 2009 / 2008

Tmax ≥   25C     

2 Tage

/

  1 Tag

Heisse Tage September 2009 / 2008

Tmax ≥   30C     

0 Tage

/

0 Tage


Monatsdiagramm September 2009

Die Kurven zeigen den Durchschnittswert des jeweiligen Tages an


Wetter-Monatsübersicht September 2009
Datum
  Temperatur
   Luftdruck
   Wind
  Regen
   Luftfeuchte
   Helligkeit

Sonnen-
schein


Temp.

Min.
Temp.

Max.
Temp.


Luftdruck

Min.
Luftdruck

Max.
Luftdruck

-Geschw.
Haupt-Richtg.

Max.
Wind

Menge /
Dauer


Feuchte

Min.
Feuchte

Max.
Feuchte


Helligkeit

Max.
Helligkeit

1.
September
18,7 C10,3 C
05:35
29,4 C
14:15
1012,8 hPa1010,5 hPa
14:15
1014,8 hPa
23:16
8,1 km/h
W-SW
42,9 km/h
16:30  
0,9 l/m
2:20 Stunden
71 %41 %
14:15
89 %
07:30
37,2 klux83,5 klux
13:20
7:15 Std 
2.
September
17,5 C13,0 C
07:21
23,3 C
13:46
1014,6 hPa1010,1 hPa
22:52
1017,5 hPa
07:01
9,3 km/h
W-SW
35,4 km/h
14:06  
---
70 %41 %
13:36
93 %
08:26
37,3 klux105,0 klux
13:36
4:50 Std 
3.
September
15,3 C13,1 C
02:32
20,0 C
16:37
1005,2 hPa1002,4 hPa
11:27
1009,2 hPa
01:02
23,2 km/h
W
62,1 km/h
15:12  
7,4 l/m
4:55 Stunden
75 %41 %
16:37
95 %
09:47
25 klux87 klux
14:22
2:25 Std 
4.
September
13,1 C9,5 C
23:19
17,0 C
11:53
1008,1 hPa1005,1 hPa
16:53
1014,9 hPa
23:44
16,7 km/h
W-SW
31,5 km/h
11:08  
6,2 l/m
3:40 Stunden
80 %58 %
11:53
95 %
19:23
20,7 klux91,2 klux
11:43
2:40 Std 
5.
September
12,4 C9,6 C
23:55
16,5 C
17:29
1019,6 hPa1014,8 hPa
00:54
1025,2 hPa
23:55
19,7 km/h
W
42,6 km/h
03:29  
0,3 l/m
1:35 Stunden
81 %59 %
17:09
94 %
00:19
21,8 klux93,8 klux
12:49
1:55 Std 
6.
September
12,3 C6,2 C
06:50
18,4 C
17:15
1025,6 hPa1024,1 hPa
17:15
1027,0 hPa
09:50
4,8 km/h
W-SW
23,5 km/h
13:00  
---
80 %57 %
14:25
97 %
08:05
34,8 klux98,8 klux
13:25
5:15 Std 
7.
September
14,6 C6,6 C
07:01
24,9 C
17:41
1023,6 hPa1021,3 hPa
17:41
1025,4 hPa
03:16
3,2 km/h
W-SW
15,0 km/h
16:46  
---
74 %42 %
17:36
96 %
08:41
43,3 klux85,2 klux
13:21
10:05 Std 
8.
September
16,7 C7,2 C
06:37
28,0 C
17:12
1023,6 hPa1021,0 hPa
17:52
1025,5 hPa
06:37
5,8 km/h
SO
20,8 km/h
17:57  
---
67 %31 %
17:37
94 %
08:37
44,3 klux78,4 klux
13:32
11:20 Std 
9.
September
15,4 C8,2 C
08:08
23,6 C
16:43
1024,3 hPa1022,5 hPa
16:53
1026,8 hPa
23:59
1,9 km/h
SO
10,0 km/h
01:43  
---
76 %48 %
14:28
94 %
08:38
28,1 klux77,9 klux
13:33
3:15 Std 
10.
September
15,0 C11,2 C
03:08
17,1 C
13:59
1028,4 hPa1026,7 hPa
06:34
1030,8 hPa
23:45
5,4 km/h
NO
16,1 km/h
10:44  
---
86 %73 %
22:35
96 %
04:49
7,5 klux18,2 klux
13:04
--- 
11.
September
15,5 C10,4 C
23:56
21,3 C
17:15
1030,1 hPa1027,9 hPa
17:15
1032,1 hPa
07:55
7,9 km/h
NO
25,9 km/h
10:45  
---
67 %42 %
17:45
86 %
07:45
42,0 klux93,1 klux
12:15
8:15 Std 
12.
September
14,1 C8,8 C
07:41
21,6 C
17:51
1026,1 hPa1022,7 hPa
17:51
1029,3 hPa
01:11
6,3 km/h
NO
23,5 km/h
13:16  
---
69 %40 %
17:56
92 %
08:26
40,3 klux96,3 klux
13:36
7:39 Std 
13.
September
11,1 C6,8 C
07:37
16,2 C
16:47
1021,0 hPa1017,1 hPa
16:47
1024,3 hPa
03:07
6,9 km/h
W
29,8 km/h
18:42  
0,3 l/m
1:25 Stunden
85 %67 %
14:47
95 %
08:57
16,2 klux69,0 klux
16:42
49 Min 
14.
September
11,0 C8,1 C
04:38
14,0 C
15:13
1018,1 hPa1016,4 hPa
15:13
1020,0 hPa
00:03
3,0 km/h
NO
18,5 km/h
12:53  
8,8 l/m
9:31 Stunden
95 %86 %
13:58
98 %
06:23
16,5 klux56,2 klux
13:43
15 Min 
15.
September
12,3 C9,6 C
06:14
14,7 C
15:29
1016,9 hPa1016,3 hPa
15:29
1017,8 hPa
00:04
1,4 km/h
NO
15,3 km/h
21:39  
0,2 l/m
45 Minuten
98 %96 %
19:19
99 %
05:59
6,4 klux20,6 klux
14:39
--- 
16.
September
15,7 C13,3 C
00:49
18,6 C
14:44
1015,1 hPa1012,8 hPa
17:54
1017,5 hPa
00:29
8,8 km/h
NO
33,0 km/h
13:59  
---
91 %81 %
15:49
98 %
03:34
14,6 klux55,8 klux
14:44
10 Min 
17.
September
15,7 C12,4 C
08:36
21,3 C
17:01
1016,8 hPa1015,2 hPa
00:01
1019,6 hPa
23:27
7,7 km/h
NO
25,8 km/h
13:56  
---
78 %58 %
17:51
91 %
01:46
30,4 klux73,2 klux
13:51
6:26 Std 
18.
September
15,8 C9,3 C
08:07
22,8 C
16:02
1018,2 hPa1015,4 hPa
17:32
1020,1 hPa
08:07
2,8 km/h
O-NO
21,6 km/h
14:22  
---
80 %60 %
14:12
95 %
08:47
33,6 klux79,0 klux
11:42
5:35 Std 
19.
September
17,2 C12,2 C
07:23
22,9 C
17:43
1016,2 hPa1015,3 hPa
17:43
1017,3 hPa
09:58
1,8 km/h
SO
14,1 km/h
15:58  
---
81 %61 %
17:43
95 %
07:53
24,5 klux75,1 klux
11:33
2:30 Std 
20.
September
17,7 C14,6 C
07:24
23,4 C
16:39
1018,6 hPa1017,1 hPa
00:04
1021,5 hPa
23:55
2,6 km/h
NW
17,6 km/h
15:09  
---
84 %62 %
16:39
95 %
08:04
24,2 klux75,2 klux
13:24
2:55 Std 
21.
September
16,6 C12,7 C
04:35
23,3 C
17:00
1024,1 hPa1021,5 hPa
00:05
1025,8 hPa
23:56
2,5 km/h
SO
16,5 km/h
14:45  
---
84 %58 %
17:05
97 %
06:30
26,2 klux89,5 klux
13:30
4:00 Std 
22.
September
15,4 C8,8 C
07:51
24,3 C
18:26
1025,8 hPa1023,4 hPa
18:26
1027,4 hPa
07:46
4,1 km/h
W-NW
22,8 km/h
17:56  
---
79 %47 %
17:56
97 %
07:56
39,9 klux72,5 klux
13:01
9:40 Std 
23.
September
14,8 C8,6 C
07:32
22,0 C
17:37
1026,0 hPa1023,7 hPa
17:42
1028,1 hPa
09:42
5,1 km/h
NW
21,0 km/h
13:57  
---
80 %59 %
17:27
95 %
07:57
42,7 klux97,6 klux
12:27
9:05 Std 
24.
September
15,3 C10,6 C
23:54
18,6 C
13:33
1023,8 hPa1022,1 hPa
15:43
1025,6 hPa
00:03
2,9 km/h
NW
14,6 km/h
13:43  
---
5 Minuten
86 %73 %
19:03
94 %
10:28
13,3 klux69,8 klux
11:38
5 Min 
25.
September
11,5 C5,4 C
07:34
19,3 C
16:44
1026,4 hPa1025,1 hPa
16:44
1028,0 hPa
10:34
2,5 km/h
SO
16,8 km/h
15:29  
---
10 Minuten
80 %51 %
15:09
97 %
07:04
31,9 klux88,2 klux
13:19
5:35 Std 
26.
September
11,8 C3,8 C
07:25
22,3 C
17:40
1026,9 hPa1024,7 hPa
17:40
1029,0 hPa
08:35
3,0 km/h
SO
17,6 km/h
14:00  
---
76 %43 %
17:45
95 %
07:40
39,1 klux69,6 klux
12:55
9:50 Std 
27.
September
12,7 C5,2 C
07:31
22,7 C
17:26
1026,3 hPa1023,6 hPa
17:26
1027,8 hPa
07:31
3,3 km/h
W-NW
14,3 km/h
15:11  
---
75 %42 %
16:51
95 %
08:56
37,9 klux68,5 klux
13:06
10:10 Std 
28.
September
12,1 C5,9 C
07:22
19,4 C
16:37
1024,7 hPa1021,3 hPa
19:02
1026,7 hPa
07:22
4,7 km/h
W-NW
20,7 km/h
13:57  
---
81 %59 %
16:42
95 %
07:57
29,6 klux67,1 klux
13:12
5:50 Std 
29.
September
13,6 C11,4 C
00:03
15,3 C
14:58
1020,5 hPa1019,3 hPa
15:13
1021,9 hPa
00:03
9,9 km/h
W
24,3 km/h
13:38  
---
20 Minuten
85 %80 %
16:08
90 %
23:34
8,5 klux41,9 klux
14:48
--- 
30.
September
14,2 C11,1 C
23:39
17,2 C
12:19
1018,1 hPa1015,5 hPa
22:04
1019,6 hPa
03:19
7,8 km/h
W
20,6 km/h
12:39  
---
10 Minuten
87 %70 %
12:24
95 %
05:04
14,9 klux89,5 klux
12:19
50 Min 



September
2009

Temperatur

  

Luftdruck

  

Wind

  

Regen

  

Luftfeuchte

  

Helligkeit

Sonnen-
schein

Min

Max

Min

Max

Max

Max

Min

Max

Max

Max

14,5 C

3,8 C

07:25 Uhr
26.09.2009

29,4 C

14:15 Uhr
01.09.2009

1020,8 hPa

1002,4 hPa

11:27 Uhr
03.09.2009

1032,1 hPa

07:55 Uhr
11.09.2009

6,4 km/h

W

62,1 km/h

15:12 Uhr
03.09.2009

8,8 l/m

9:31 Stunden
14.09.2009

80 %

31 %

17:37 Uhr
08.09.2009

99 %

05:59 Uhr
15.09.2009

27,8 klux

105,0 klux

13:36 Uhr
02.09.2009

11:20 Std

am
08.09.2009

Gesamt

Gesamt

24,2 l/m

11 Tage
24:56 h

138:39 Std


Wetter-Diagramme September 2009     Heinzenberg / Taunus   
TemperaturLuftfeuchte
SolarstrahlungLuftdruck
HelligkeitSonnenschein
RegenmengeRegendauer
Wind-GeschwindigkeitWind-Richtung